Terminal Aerodrome Forecast
Issued by NWS

Home | Current Version | Previous Version | Text Only | Print | Product List | Glossary On
Versions: 1 2 3 4 5 6 7 8 9 10 11 12 13 14 15 16 17 18 19 20 21 22 23 24 25 26 27 28 29 30 31 32 33 34 35 36
605
FTUS45 KBOI 271736
TAFMYL
TAF
KMYL 271736Z 2718/2818 17006KT 5SM -SN BR SCT030 OVC040
     FM280500 17008KT 1SM -SN BR OVC015
     FM281400 VRB06KT 5SM -SN SCT020 OVC040=

USA.gov is the U.S. government's official web portal to all federal, state and local government web resources and services.